Regional Weather Roundup
Issued by NWS

Home | Current Version | Previous Version | Graphics & Text | Print | Product List | Glossary On
Versions: 1 2 3 4 5 6 7 8 9 10 11 12 13 14 15 16 17 18 19 20 21 22 23 24 25 26 27 28 29 30 31 32 33 34 35 36 37 38 39 40 41 42 43 44 45 46 47 48 49 50
732
ASUS43 KFSD 201102
RWRSD

WEATHER ROUNDUP FOR SOUTH DAKOTA
NATIONAL WEATHER SERVICE SIOUX FALLS SD
500 AM CST MON NOV 20 2017

NOTE: "FAIR" INDICATES FEW OR NO CLOUDS BELOW 12,000 FEET WITH NO
SIGNIFICANT WEATHER AND/OR OBSTRUCTIONS TO VISIBILITY.


SDZ001>005-009-010-012>017-201200-
NORTHWEST AND NORTH CENTRAL SOUTH DAKOTA

CITY           SKY/WX    TMP DP  RH WIND       PRES   REMARKS
BUFFALO          N/A     42  16  34 W16       29.48F
FAITH            N/A     39  20  46 W12       29.56F
MOBRIDGE       CLOUDY    28  22  78 SE7       29.52F WCI  21
$$

SDZ012>016-024>037-041>051-057-063-072>074-201200-
SOUTHWEST AND SOUTH CENTRAL SOUTH DAKOTA

CITY           SKY/WX    TMP DP  RH WIND       PRES   REMARKS
RAPID CTY ARPT CLOUDY    32  16  51 S3        29.60F
PIERRE         CLOUDY    29  21  72 W6        29.57F WCI  23
CUSTER         CLOUDY    37   7  28 W10       29.68F
ELLSWORTH AFB  CLOUDY    39  14  36 W6        29.58F
PHILIP         CLOUDY    34  21  59 W9        29.60F WCI  27
PINE RIDGE     CLOUDY    36  15  42 SW3       29.71S
SPEARFISH      FAIR      50   7  17 SW10G18   29.60F
WINNER         FAIR      38  19  46 SW10      29.60F
$$

SDZ004>011-016>023-039-040-201200-
NORTHEAST SOUTH DAKOTA

CITY           SKY/WX    TMP DP  RH WIND       PRES   REMARKS
ABERDEEN       CLOUDY    21  19  92 S7        29.57F WCI  12
WATERTOWN      CLOUDY    29  23  78 S9        29.58F WCI  20
BROOKINGS        N/A     28  23  81 SE5         N/A  WCI  23
SISSETON         N/A     28  22  78 S3        29.55F
$$

SDZ017-020-022-023-036>040-048>070-201200-
SOUTHEAST SOUTH DAKOTA

CITY           SKY/WX    TMP DP  RH WIND       PRES   REMARKS
SIOUX FALLS    CLOUDY    28  22  78 S5        29.64F WCI  23
HURON          CLOUDY    27  22  81 S9        29.59F WCI  18
CHAMBERLAIN    CLOUDY    31  23  71 W5        29.60F WCI  27
MITCHELL       CLOUDY    30  24  78 S7        29.61F WCI  23
YANKTON        CLOUDY    34  24  67 S6        29.65F WCI  29
$$

ABBREVIATIONS USED IN REMARKS
   TC - TEMPERATURE IN CELSIUS
  WCI - WIND CHILL INDEX
   HX - HEAT INDEX
  VSB - VISIBILITY





USA.gov is the U.S. government's official web portal to all federal, state and local government web resources and services.